Location: La Fredeussais
(48.1780°N, 1.3980°W)
Time: 18:26:19
(UTC+00:00)

Gbstr 26 Del rocket - Pass Details

Date: 09 May 2021
Orbit: 493 x 1263 km, 51.8° (Epoch: 15 June)

Event Time Altitude Azimuth Distance (km) Brightness Sun altitude
Rises 22:17:45 0° 283° (WNW) 4,135 7.8 -20.2°
Reaches altitude 10° 22:20:46 10° 285° (WNW) 3,102 7.2 -20.4°
Maximum altitude 22:28:20 69° 9° (N) 1,113 4.4 -21.0°
Enters shadow 22:34:29 10° 93° (E) 2,556 6.0 -21.4°
